EW1448 Weather Reports


Display with metric or nautical units.
time (UTC)temp
F
wind
direction
speed
MPH
gust
MPH
rain 1hr
in
rain 24hr
in
rain mn
in
humidity
%
barometer
mb
20260510034531 84 155 9.0 15.0 0.00 0.00 0.00 13 1012.5
20260510000032 93 207 6.0 15.0 0.00 0.00 0.00 10 1010.8
20260509234537 93 267 7.0 17.0 0.00 0.00 0.00 10 1010.9
20260509233021 94 283 10.0 15.0 0.00 0.00 0.00 10 1010.8
20260509231538 95 231 13.0 19.0 0.00 0.00 0.00 9 1010.7
20260509230052 95 110 6.0 13.0 0.00 0.00 0.00 10 1011.0
20260509224521 93 231 5.0 17.0 0.00 0.00 0.00 11 1011.2
20260509214542 92 110 6.0 15.0 0.00 0.00 0.00 11 1012.1
20260509213021 93 151 8.0 19.0 0.00 0.00 0.00 11 1012.3
20260509211536 92 122 1.0 8.0 0.00 0.00 0.00 11 1012.4
20260509210036 93 124 6.0 12.0 0.00 0.00 0.00 11 1012.6
20260509204556 94 153 2.0 7.0 0.00 0.00 0.00 11 1012.8
20260509203041 94 118 3.0 9.0 0.00 0.00 0.00 10 1013.2
20260509201535 94 110 4.0 9.0 0.00 0.00 0.00 11 1013.3
20260509200035 96 120 1.0 7.0 0.00 0.00 0.00 10 1013.4
20260509194529 94 5 2.0 8.0 0.00 0.00 0.00 10 1013.6
20260509193037 95 118 2.0 7.0 0.00 0.00 0.00 10 1013.9
20260509191551 95 50 2.0 4.0 0.00 0.00 0.00 10 1014.0
20260509190020 92 329 4.0 10.0 0.00 0.00 0.00 11 1014.3
20260509184553 91 20 4.0 7.0 0.00 0.00 0.00 11 1014.5
20260509183045 91 212 2.0 5.0 0.00 0.00 0.00 11 1014.9
20260509181532 91 139 1.0 5.0 0.00 0.00 0.00 13 1014.9
20260509180022 89 169 0.0 5.0 0.00 0.00 0.00 14 1015.2
20260509174531 87 51 2.0 5.0 0.00 0.00 0.00 13 1015.4
20260509173035 85 7 2.0 4.0 0.00 0.00 0.00 13 1015.5
20260509171527 84 49 2.0 7.0 0.00 0.00 0.00 14 1015.7
20260509170040 84 183 1.0 4.0 0.00 0.00 0.00 14 1015.8
20260509164551 82 127 1.0 4.0 0.00 0.00 0.00 17 1015.9
20260509163043 81 60 1.0 4.0 0.00 0.00 0.00 14 1015.9
20260509161603 80 123 1.0 3.0 0.00 0.00 0.00 17 1016.0
20260509160020 79 56 1.0 4.0 0.00 0.00 0.00 18 1016.1
20260509154534 77 34 2.0 4.0 0.00 0.00 0.00 19 1016.2
20260509153044 75 38 1.0 6.0 0.00 0.00 0.00 19 1016.2
20260509151531 74 13 1.0 4.0 0.00 0.00 0.00 18 1016.2
20260509150044 74 94 0.0 2.0 0.00 0.00 0.00 20 1016.3
20260509144604 74 90 0.0 1.0 0.00 0.00 0.00 20 1016.3
20260509143042 74 37 0.0 0.0 0.00 0.00 0.00 22 1016.2
20260509141539 71 35 0.0 0.0 0.00 0.00 0.00 24 1016.2
20260509140020 69 36 0.0 1.0 0.00 0.00 0.00 24 1016.1
20260509134529 67 353 0.0 1.0 0.00 0.00 0.00 28 1016.0
20260509133021 64 271 0.0 0.0 0.00 0.00 0.00 27 1015.8
20260509131600 60 271 0.0 1.0 0.00 0.00 0.00 30 1015.7